TimeCST,TemperatureF,Dew PointF,Humidity,Sea Level PressureIn,VisibilityMPH,Wind Direction,Wind SpeedMPH,Gust SpeedMPH,PrecipitationIn,Events,Conditions,WindDirDegrees,DateUTC
12:15 AM,44.2,42.1,92,30.12,10.0,Calm,Calm,-,N/A,,Clear,0,2013-02-15 06:15:00
12:35 AM,43.0,41.5,95,30.12,10.0,Calm,Calm,-,N/A,,Clear,0,2013-02-15 06:35:00
12:55 AM,43.3,41.9,95,30.13,10.0,Calm,Calm,-,N/A,,Clear,0,2013-02-15 06:55:00
1:15 AM,42.3,41.0,95,30.12,10.0,Calm,Calm,-,N/A,,Clear,0,2013-02-15 07:15:00
1:35 AM,43.2,41.2,93,30.12,10.0,Calm,Calm,-,N/A,,Clear,0,2013-02-15 07:35:00
1:55 AM,43.7,42.3,95,30.12,10.0,Calm,Calm,-,N/A,,Clear,0,2013-02-15 07:55:00
2:35 AM,43.0,42.3,97,30.12,10.0,Calm,Calm,-,N/A,,Clear,0,2013-02-15 08:35:00
2:55 AM,42.8,42.8,100,30.12,10.0,Calm,Calm,-,N/A,,Clear,0,2013-02-15 08:55:00
3:15 AM,42.4,42.3,99,30.12,4.0,Calm,Calm,-,N/A,,Clear,0,2013-02-15 09:15:00
3:35 AM,42.6,42.6,100,30.12,4.0,Calm,Calm,-,N/A,,Clear,0,2013-02-15 09:35:00
3:55 AM,41.5,40.8,97,30.12,10.0,Calm,Calm,-,N/A,,Clear,0,2013-02-15 09:55:00
4:15 AM,41.9,41.5,99,30.12,10.0,Calm,Calm,-,N/A,,Clear,0,2013-02-15 10:15:00
4:35 AM,41.9,41.9,100,30.12,10.0,Calm,Calm,-,N/A,,Clear,0,2013-02-15 10:35:00
4:55 AM,42.1,41.7,99,30.13,5.0,Calm,Calm,-,N/A,,Clear,0,2013-02-15 10:55:00
5:15 AM,43.0,43.0,100,30.13,5.0,Calm,Calm,-,N/A,,Clear,0,2013-02-15 11:15:00
5:35 AM,42.8,42.8,100,30.14,5.0,Calm,Calm,-,N/A,,Clear,0,2013-02-15 11:35:00
6:15 AM,42.4,42.4,100,30.15,5.0,Calm,Calm,-,N/A,,Clear,0,2013-02-15 12:15:00
6:35 AM,43.2,43.2,100,30.16,5.0,Calm,Calm,-,N/A,,Clear,0,2013-02-15 12:35:00
6:55 AM,42.8,42.8,100,30.17,4.0,Calm,Calm,-,N/A,,Clear,0,2013-02-15 12:55:00
7:15 AM,42.4,42.4,100,30.18,5.0,Calm,Calm,-,N/A,,Clear,0,2013-02-15 13:15:00
7:55 AM,45.9,45.0,97,30.20,10.0,Calm,Calm,-,N/A,,Clear,0,2013-02-15 13:55:00
8:15 AM,47.3,44.8,91,30.20,10.0,North,3.5,-,N/A,,Clear,350,2013-02-15 14:15:00
8:35 AM,48.6,45.3,89,30.20,10.0,Calm,Calm,-,N/A,,Clear,0,2013-02-15 14:35:00
8:55 AM,50.5,46.2,85,30.20,10.0,Calm,Calm,-,N/A,,Clear,0,2013-02-15 14:55:00
9:15 AM,52.2,46.6,81,30.20,10.0,NNE,3.5,-,N/A,,Clear,20,2013-02-15 15:15:00
9:35 AM,53.6,46.8,78,30.21,10.0,NNW,3.5,-,N/A,,Clear,340,2013-02-15 15:35:00
9:55 AM,55.2,46.2,72,30.21,10.0,Calm,Calm,-,N/A,,Clear,0,2013-02-15 15:55:00
10:15 AM,56.5,45.1,66,30.21,10.0,North,3.5,-,N/A,,Clear,350,2013-02-15 16:15:00
10:35 AM,56.8,43.5,61,30.21,10.0,NNW,8.1,-,N/A,,Clear,330,2013-02-15 16:35:00
10:55 AM,57.7,44.2,61,30.21,10.0,NNW,6.9,-,N/A,,Clear,340,2013-02-15 16:55:00
11:15 AM,58.6,44.2,59,30.20,10.0,NNW,8.1,-,N/A,,Clear,330,2013-02-15 17:15:00
11:55 AM,59.7,43.9,56,30.20,10.0,NNW,3.5,-,N/A,,Clear,340,2013-02-15 17:55:00
12:15 PM,61.2,41.7,49,30.19,10.0,North,5.8,-,N/A,,Clear,360,2013-02-15 18:15:00
12:35 PM,61.7,41.2,47,30.18,10.0,NNW,5.8,-,N/A,,Clear,340,2013-02-15 18:35:00
12:55 PM,61.7,40.1,45,30.17,10.0,NNW,5.8,-,N/A,,Clear,340,2013-02-15 18:55:00
1:15 PM,61.7,39.6,44,30.16,10.0,NNW,5.8,9.2,N/A,,Clear,330,2013-02-15 19:15:00
1:35 PM,62.4,40.1,44,30.15,10.0,NW,6.9,-,N/A,,Clear,320,2013-02-15 19:35:00
1:55 PM,62.8,39.2,42,30.14,10.0,NNW,8.1,-,N/A,,Clear,330,2013-02-15 19:55:00
2:15 PM,63.0,39.6,42,30.13,10.0,NNW,4.6,-,N/A,,Clear,340,2013-02-15 20:15:00
2:35 PM,63.1,40.6,44,30.13,10.0,WNW,5.8,-,N/A,,Clear,300,2013-02-15 20:35:00
2:55 PM,63.0,39.0,41,30.13,10.0,NW,3.5,-,N/A,,Clear,310,2013-02-15 20:55:00
3:15 PM,63.3,39.4,41,30.12,10.0,Calm,Calm,-,N/A,,Scattered Clouds,0,2013-02-15 21:15:00
3:35 PM,63.5,39.2,41,30.12,10.0,NNW,8.1,-,N/A,,Scattered Clouds,340,2013-02-15 21:35:00
3:55 PM,64.0,39.0,40,30.11,10.0,North,3.5,-,N/A,,Scattered Clouds,350,2013-02-15 21:55:00
4:15 PM,64.6,39.9,40,30.11,10.0,North,4.6,-,N/A,,Scattered Clouds,350,2013-02-15 22:15:00
4:35 PM,63.7,38.3,39,30.11,10.0,NNW,3.5,-,N/A,,Scattered Clouds,340,2013-02-15 22:35:00
4:55 PM,63.0,39.4,42,30.11,10.0,Calm,Calm,-,N/A,,Clear,0,2013-02-15 22:55:00
5:15 PM,62.6,41.4,46,30.11,10.0,North,8.1,-,N/A,,Scattered Clouds,360,2013-02-15 23:15:00
5:35 PM,61.0,42.4,51,30.11,10.0,North,10.4,-,N/A,,Scattered Clouds,360,2013-02-15 23:35:00
5:55 PM,59.7,43.7,55,30.12,10.0,North,9.2,-,N/A,,Scattered Clouds,360,2013-02-15 23:55:00
6:15 PM,58.5,44.2,59,30.12,10.0,North,5.8,-,N/A,,Mostly Cloudy,350,2013-02-16 00:15:00
6:35 PM,57.6,44.8,62,30.13,10.0,North,6.9,-,N/A,,Scattered Clouds,360,2013-02-16 00:35:00
6:55 PM,56.5,45.0,65,30.15,10.0,North,5.8,-,N/A,,Mostly Cloudy,10,2013-02-16 00:55:00
7:15 PM,55.6,43.3,63,30.16,10.0,North,13.8,19.6,N/A,,Scattered Clouds,350,2013-02-16 01:15:00
7:35 PM,54.0,42.8,66,30.18,10.0,North,13.8,24.2,N/A,,Clear,360,2013-02-16 01:35:00
7:55 PM,52.7,42.6,69,30.19,10.0,North,15.0,18.4,N/A,,Scattered Clouds,360,2013-02-16 01:55:00
8:15 PM,52.0,41.9,69,30.21,10.0,North,17.3,21.9,N/A,,Scattered Clouds,360,2013-02-16 02:15:00
8:35 PM,51.8,41.5,68,30.22,10.0,North,12.7,20.7,N/A,,Overcast,360,2013-02-16 02:35:00
8:55 PM,51.4,41.2,68,30.23,10.0,North,12.7,21.9,N/A,,Overcast,350,2013-02-16 02:55:00
9:15 PM,50.9,41.0,69,30.23,10.0,North,12.7,-,N/A,,Overcast,10,2013-02-16 03:15:00
9:35 PM,50.5,41.2,70,30.23,10.0,North,11.5,-,N/A,,Overcast,10,2013-02-16 03:35:00
9:55 PM,50.2,40.5,69,30.23,10.0,North,13.8,-,N/A,,Overcast,360,2013-02-16 03:55:00
10:15 PM,49.5,41.5,74,30.24,10.0,North,15.0,19.6,N/A,,Overcast,360,2013-02-16 04:15:00
10:35 PM,49.1,41.4,75,30.24,10.0,North,12.7,-,N/A,Rain,Light Rain,10,2013-02-16 04:35:00
10:55 PM,48.6,42.1,78,30.25,10.0,North,10.4,-,N/A,Rain,Light Rain,360,2013-02-16 04:55:00
11:15 PM,48.2,41.9,79,30.25,10.0,North,9.2,-,N/A,Rain,Light Rain,360,2013-02-16 05:15:00
11:35 PM,48.2,41.5,78,30.25,10.0,NNW,6.9,-,N/A,,Light Drizzle,340,2013-02-16 05:35:00
11:55 PM,48.4,41.0,76,30.26,10.0,NNW,12.7,-,N/A,Rain,Light Rain,330,2013-02-16 05:55:00